STARLINK-1884 (47167 NORAD) Tracking and Keplerian Element Data

This shows tracking and keplerian element data for the satellite.

Feedback or suggestion? Click here.




ElementValue
Catalog47167
NameSTARLINK-1884
Epoch Orbit180
Epoch Day99.91667824
Epoch Year2021
RAAN78.6703
Inclination53.0564
Eccentricity0.0009602
Argument of Perigee78.3606
Mean Anonmoly22.5906
Mean Motion15.06417606
Decay Rate-9.726E-05
L11 47167U 20088AX 21099.91667824 -.00009726 00000-0 -63368-3 0 9992
L22 47167 53.0564 78.6703 0009602 78.3606 22.5906 15.06417606 1807

Live tracking and technical data element details for STARLINK-1884 (NORAD 47167). STARLINK-1884 can be tracked NOW for your location showing map with azimuth and elevation plus other details from your city location.

Track the satellite on the map from your city or location and see movement details for azimuth, elevation, latitude, longitude, range, height, and movement on the map or in text.







IsCatalogInMostPopularTable: catalog: 47167, numindb: 54
Update: records affected: 1



GetName: 47167 STARLINK-1884

Hit Count: updated at: Sat, 10 Apr 2021 19:30:27 GMT